Tracking 28790 objects as of 19-Apr-2024
HD Live streaming from Space Station
objects crossing your sky now

THORAD AGENA D DEB

Track THORAD AGENA D DEB now!
10-day predictions


NORAD ID: 5129
Int'l Code: 1970-025JN
Perigee: 924.1 km
Apogee: 1,213.7 km
Inclination: 99.3 °
Period: 106.4 minutes
Semi major axis: 7439 km
RCS: 0.0305 m2 (small)
Launch date: April 8, 1970
Source: United States (US)
Launch site: AIR FORCE WESTERN TEST RANGE (AFWTR)

Note: This is SATELLITE DEBRIS
Your satellite tracking list
Your tracking list is empty




NASA's NSSDC Master Catalog

Two Line Element Set (TLE):
1  5129U 70025JN  24109.57523473  .00003852  00000-0  51906-2 0  9994
2  5129  99.3029 232.9157 0194689 280.7422 140.1026 13.52859013626940
Source of the keplerian elements: AFSPC